Lanzarote, Spain

5:23 PM WET on December 18, 2018 (GMT +0000)
Lanzarote

Weather History for GCRR - August, 2018

Change the Weather History Date:

Saturday, August 11, 2018

  Actual Average Record
Temperature  
Mean Temperature 74 °F -  
Max Temperature 81 °F 82 °F 101 °F (2012)
Min Temperature 68 °F 69 °F 68 °F (2017)
Cooling Degree Days 10    
Growing Degree Days 24 (Base 50)    
Moisture  
Dew Point 65 °F    
Average Humidity 72    
Maximum Humidity 83    
Minimum Humidity 51    
Precipitation  
Precipitation 0.00 in 0.00 in - ()
Sea Level Pressure  
Sea Level Pressure 30.01 in    
Wind  
Wind Speed 21 mph ()    
Max Wind Speed 30 mph    
Max Gust Speed 41 mph    
Visibility 7.0 miles    
Events      
Averages and records for this station are not official NWS values.
T = Trace of Precipitation, MM = Missing Value Source: Averaged Metar Reports

Daily Weather History Graph

Daily Weather History Graph

Search for Another Location

Airport or City:

Astronomy

Aug. 11, 2018 Rise Set
Actual Time 7:20 AM WEST 8:37 PM WEST
Civil Twilight 6:55 AM WEST 9:02 PM WEST
Nautical Twilight 6:26 AM WEST 9:32 PM WEST
Astronomical Twilight 5:55 AM WEST 10:03 PM WEST
Moon 7:14 AM WEST (8/11) 8:57 PM WEST (8/11)
Length of Visible Light 14h 07m
Length of Day
13h 16m
New Moon, 0% of the Moon is Illuminated
Aug 11
New Moon
Aug 18
First Quarter
Aug 26
Full
Sep 3
Last Quarter
Sep 9
New

Hourly Weather History & Observations

Time (WEST) Temp. Heat Index Dew Point Humidity Pressure Visibility Wind Dir Wind Speed Gust Speed Precip Events Conditions
12:00 AM 70 °F - 64 °F 74% 30.08 in - North 20.7 mph - -  
12:30 AM 69.8 °F - 64.4 °F 83% 30.06 in 6.2 mi North 19.6 mph - N/A   Partly Cloudy
1:00 AM 69 °F - 64 °F 79% 30.06 in 12 mi North 19.6 mph - -   Scattered Clouds
1:00 AM 69.8 °F - 64.4 °F 83% 30.06 in 6.2 mi North 17.3 mph - N/A   Partly Cloudy
1:30 AM 69.8 °F - 64.4 °F 83% 30.06 in 6.2 mi North 18.4 mph - N/A   Unknown
2:00 AM 69 °F - 64 °F 79% 30.05 in - North 18.4 mph - -  
2:00 AM 69.8 °F - 64.4 °F 83% 30.04 in 6.2 mi North 17.3 mph - N/A   Unknown
2:30 AM 69.8 °F - 64.4 °F 83% 30.04 in 6.2 mi North 18.4 mph - N/A   Unknown
3:00 AM 69 °F - 64 °F 80% 30.03 in - North 21.9 mph - -  
3:00 AM 69.8 °F - 64.4 °F 83% 30.04 in 6.2 mi North 24.2 mph - N/A   Unknown
3:30 AM 69.8 °F - 64.4 °F 83% 30.01 in 6.2 mi North 24.2 mph - N/A   Unknown
4:00 AM 69.8 °F - 64.4 °F 83% 30.01 in 6.2 mi North 23.0 mph - N/A   Unknown
4:30 AM 69.8 °F - 64.4 °F 83% 30.01 in 6.2 mi NNW 21.9 mph - N/A   Unknown
5:00 AM 69 °F - 64 °F 79% 30.01 in - NNW 23.0 mph - -  
5:00 AM 69.8 °F - 64.4 °F 83% 30.01 in 6.2 mi NNW 21.9 mph - N/A   Unknown
5:30 AM 69.8 °F - 64.4 °F 83% 29.98 in 6.2 mi North 21.9 mph 34.5 mph N/A   Unknown
6:00 AM 69 °F - 64 °F 79% 29.99 in - NNW 26.5 mph - -  
6:00 AM 69.8 °F - 62.6 °F 78% 29.98 in 6.2 mi North 24.2 mph 35.7 mph N/A   Partly Cloudy
6:30 AM 69.8 °F - 64.4 °F 83% 30.01 in 6.2 mi North 20.7 mph - N/A   Partly Cloudy
7:00 AM 69 °F - 64 °F 79% 30.02 in 9 mi NNW 23.0 mph - -   Scattered Clouds
7:00 AM 69.8 °F - 64.4 °F 83% 30.01 in 6.2 mi NNW 23.0 mph - N/A   Partly Cloudy
7:30 AM 69.8 °F - 64.4 °F 83% 30.01 in 6.2 mi NNW 23.0 mph 34.5 mph N/A   Partly Cloudy
8:00 AM 70 °F - 64 °F 77% 30.03 in - NNW 23.0 mph - -  
8:00 AM 69.8 °F - 64.4 °F 83% 30.04 in 6.2 mi North 24.2 mph 35.7 mph N/A   Partly Cloudy
8:30 AM 71.6 °F - 64.4 °F 78% 30.01 in 6.2 mi North 23.0 mph 34.5 mph N/A   Partly Cloudy
9:00 AM 72 °F - 65 °F 72% 30.03 in - North 26.5 mph - -  
9:00 AM 71.6 °F - 64.4 °F 78% 30.04 in 6.2 mi North 24.2 mph - N/A   Partly Cloudy
9:30 AM 73.4 °F - 64.4 °F 73% 30.04 in 6.2 mi North 25.3 mph 38.0 mph N/A   Partly Cloudy
10:00 AM 75 °F - 64 °F 61% 30.05 in 12 mi North 26.5 mph - -   Scattered Clouds
10:00 AM 75.2 °F - 64.4 °F 69% 30.04 in 6.2 mi North 26.5 mph 38.0 mph N/A   Partly Cloudy
10:30 AM 77.0 °F - 64.4 °F 65% 30.04 in 6.2 mi North 24.2 mph - N/A   Partly Cloudy
11:00 AM 77 °F - 65 °F 57% 30.05 in - North 26.5 mph - -  
11:30 AM 77.0 °F - 64.4 °F 65% 30.04 in 6.2 mi North 26.5 mph - N/A   Partly Cloudy
12:00 PM 78 °F - 65 °F 55% 30.03 in - North 29.9 mph - -  
12:00 PM 77.0 °F - 64.4 °F 65% 30.04 in 6.2 mi North 29.9 mph 41.4 mph N/A   Partly Cloudy
12:30 PM 77.0 °F - 64.4 °F 65% 30.01 in 6.2 mi North 27.6 mph - N/A   Partly Cloudy
1:00 PM 79 °F - 65 °F 53% 30.02 in 16 mi North 28.8 mph - -   Scattered Clouds
1:00 PM 78.8 °F - 64.4 °F 61% 30.01 in 6.2 mi North 27.6 mph - N/A   Partly Cloudy
1:30 PM 78.8 °F - 66.2 °F 65% 30.01 in 6.2 mi North 29.9 mph 41.4 mph N/A   Partly Cloudy
2:00 PM 81 °F - 66 °F 51% 30.00 in - North 27.6 mph - -  
2:00 PM 78.8 °F - 66.2 °F 65% 30.01 in 6.2 mi North 29.9 mph - N/A   Partly Cloudy
2:30 PM 78.8 °F - 66.2 °F 65% 29.98 in 6.2 mi North 28.8 mph - N/A   Partly Cloudy
3:00 PM 81 °F - 66 °F 51% 30.00 in - North 25.3 mph - -  
3:00 PM 78.8 °F - 66.2 °F 65% 30.01 in 6.2 mi North 26.5 mph 38.0 mph N/A   Partly Cloudy
4:00 PM 80 °F - 66 °F 53% 29.97 in 16 mi North 28.8 mph - -   Scattered Clouds
4:00 PM 80.6 °F 82.7 °F 66.2 °F 61% 29.98 in 6.2 mi North 26.5 mph 39.1 mph N/A   Partly Cloudy
4:30 PM 80.6 °F 82.7 °F 66.2 °F 61% 29.95 in 6.2 mi North 26.5 mph 38.0 mph N/A   Partly Cloudy
5:00 PM 80 °F - 66 °F 53% 29.97 in - North 27.6 mph - -  
5:00 PM 80.6 °F 82.7 °F 66.2 °F 61% 29.98 in 6.2 mi North 26.5 mph - N/A   Partly Cloudy
6:00 PM 79 °F - 66 °F 55% 29.96 in - North 26.5 mph - -  
6:00 PM 77.0 °F - 66.2 °F 69% 29.95 in 6.2 mi North 27.6 mph - N/A   Partly Cloudy
6:30 PM 77.0 °F - 66.2 °F 69% 29.95 in 6.2 mi North 24.2 mph - N/A   Partly Cloudy
7:00 PM 77 °F - 66 °F 61% 29.96 in 11 mi North 20.7 mph - -   Scattered Clouds
7:00 PM 77.0 °F - 66.2 °F 69% 29.95 in 6.2 mi North 24.2 mph - N/A   Partly Cloudy
7:30 PM 77.0 °F - 66.2 °F 69% 29.95 in 6.2 mi North 20.7 mph - N/A   Partly Cloudy
8:00 PM 74 °F - 66 °F 70% 29.96 in - North 23.0 mph - -  
8:00 PM 75.2 °F - 66.2 °F 73% 29.95 in 6.2 mi North 20.7 mph - N/A   Partly Cloudy
9:00 PM 73 °F - 66 °F 74% 29.98 in - North 19.6 mph - -  
9:00 PM 73.4 °F - 66.2 °F 78% 29.98 in 6.2 mi North 18.4 mph - N/A   Partly Cloudy
9:30 PM 73.4 °F - 66.2 °F 78% 29.98 in 6.2 mi North 19.6 mph - N/A   Partly Cloudy
10:00 PM 73.4 °F - 66.2 °F 78% 29.98 in 6.2 mi North 18.4 mph - N/A   Partly Cloudy
10:30 PM 73.4 °F - 66.2 °F 78% 30.01 in 6.2 mi North 19.6 mph - N/A   Partly Cloudy
11:00 PM 74 °F - 65 °F 66% 30.03 in - North 13.8 mph - -  
11:00 PM 73.4 °F - 66.2 °F 78% 30.01 in 6.2 mi North 13.8 mph - N/A   Partly Cloudy
11:30 PM 73.4 °F - 66.2 °F 78% 30.01 in 6.2 mi North 13.8 mph - N/A   Partly Cloudy